Location: Newark
(33.4133°N, 82.3847°W)
Time: 01:09:42
(UTC+00:00)

Hubble Space Telescope - Pass Details

Date: 01 February 2020
Orbit: 536 x 540 km, 28.5° (Epoch: 27 February)

Event Time Altitude Azimuth Distance (km) Brightness Sun altitude
Exits shadow 10:00:40 18° 136° (SE) 1,340 3.2 -30.5°
Drops below altitude 10° 10:02:29 10° 112° (ESE) 1,777 4.2 -30.1°
Sets 10:05:08 0° 96° (E) 2,668 5.5 -29.5°
